This is the latest recevied weather packets stored in our database for station/object K6QM-1. If no packets are shown the sender has not sent any weather packets the latest 10 day(s).
| Time | Temp. | Humidity | Pressure | Rain* | Wind** | Luminosity | Snow |
|---|---|---|---|---|---|---|---|
| 1777661725 | 24.44° C | 45% | 1016.1 hPa | - | - | - | - |
| 1777659925 | 23.89° C | 45% | 1016.4 hPa | - | - | - | - |
| 1777659026 | 23.33° C | 46% | 1016.4 hPa | - | - | - | - |
| 1777657225 | 22.78° C | 50% | 1016.7 hPa | - | - | - | - |
| 1777655425 | 20.56° C | 54% | 1016.9 hPa | - | - | - | - |
| 1777654524 | 19.44° C | 56% | 1016.9 hPa | - | - | - | - |
| 1777652724 | 18.33° C | 58% | 1017.1 hPa | - | - | - | - |
| 1777651824 | 17.78° C | 59% | 1016.9 hPa | - | - | - | - |
| 1777650924 | 17.78° C | 60% | 1017 hPa | - | - | - | - |
| 1777649124 | 17.22° C | 61% | 1016.9 hPa | - | - | - | - |
| 1777648224 | 16.67° C | 63% | 1016.9 hPa | - | - | - | - |
| 1777647324 | 16.67° C | 62% | 1016.8 hPa | - | - | - | - |
| 1777646424 | 16.67° C | 63% | 1016.9 hPa | - | - | - | - |
| 1777645524 | 16.11° C | 63% | 1016.7 hPa | - | - | - | - |
| 1777644624 | 16.67° C | 63% | 1016.6 hPa | - | - | - | - |
| 1777643723 | 16.11° C | 63% | 1016.4 hPa | - | - | - | - |
| 1777642823 | 16.11° C | 63% | 1016.2 hPa | - | - | - | - |
| 1777641924 | 16.11° C | 64% | 1016.1 hPa | - | - | - | - |
| 1777641024 | 16.11° C | 63% | 1015.9 hPa | - | - | - | - |
| 1777638323 | 16.11° C | 64% | 1015.9 hPa | - | - | - | - |
| 1777635623 | 15.56° C | 63% | 1015.7 hPa | - | - | - | - |
| 1777634723 | 15.56° C | 63% | 1015.6 hPa | - | - | - | - |
| 1777633822 | 15.56° C | 63% | 1015.5 hPa | - | - | - | - |
| 1777632922 | 15.56° C | 63% | 1015.6 hPa | - | - | - | - |
| 1777632022 | 15.56° C | 62% | 1015.6 hPa | - | - | - | - |
* Rain since midnight (hover to see other rain measurements)
** Current wind speed in m/s (hover to see current wind gust speed)